Bloomington, IL

7:59 AM CDT on August 28, 2016 (GMT -0500)
Central Ill Regional

Weather History for KBMI - November, 2012

Change the Weather History Date:

Sunday, November 11, 2012

  Actual Average Record
Temperature  
Mean Temperature 51 °F -  
Max Temperature 65 °F 64 °F 68 °F (2010)
Min Temperature 34 °F 44 °F 24 °F (1996)
Degree Days  
Heating Degree Days 14    
Growing Degree Days 1 (Base 50)    
Moisture  
Dew Point 49 °F    
Average Humidity 86    
Maximum Humidity 100    
Minimum Humidity 61    
Precipitation  
Precipitation 0.50 in - - ()
Sea Level Pressure  
Sea Level Pressure 29.91 in    
Wind  
Wind Speed 22 mph (SW)    
Max Wind Speed 41 mph    
Max Gust Speed 48 mph    
Visibility 6 miles    
Events Rain    
Averages and records for this station are not official NWS values.
T = Trace of Precipitation, MM = Missing Value Source: NWS Daily Summary

Daily Weather History Graph

Daily Weather History Graph

Search for Another Location

Airport or City:

Trip Planner

Search our weather history database for the weather conditions in past years. The results will help you decide how hot, cold, wet, or windy it might be!

Date:

Astronomy

Nov. 11, 2012 Rise Set
Actual Time 6:37 AM CST 4:41 PM CST
Civil Twilight 6:08 AM CST 5:10 PM CST
Nautical Twilight 5:36 AM CST 5:42 PM CST
Astronomical Twilight 5:03 AM CST 6:15 PM CST
Moon 3:51 AM CST (11/11) 3:05 PM CST (11/11)
Length of Visible Light 11h 01m
Length of Day
10h 03m
Waning Crescent, 7% of the Moon is Illuminated
Nov 11
Waning Crescent
Nov 13
New
Nov 20
First Quarter
Nov 28
Full
Dec 6
Last Quarter

Hourly Weather History & Observations

Time (CST) Temp. Windchill Dew Point Humidity Pressure Visibility Wind Dir Wind Speed Gust Speed Precip Events Conditions
12:56 AM 56.8 °F - 46.9 °F 69% 29.95 in 10.0 mi South 17.3 mph - N/A   Clear
1:56 AM 57.9 °F - 46.9 °F 67% 29.95 in 10.0 mi South 19.6 mph - N/A   Clear
2:56 AM 57.9 °F - 47.8 °F 69% 29.95 in 10.0 mi South 20.7 mph - N/A   Clear
3:56 AM 55.9 °F - 47.8 °F 74% 29.95 in 10.0 mi South 21.9 mph - N/A   Clear
4:56 AM 54.0 °F - 47.8 °F 80% 29.95 in 10.0 mi South 20.7 mph - N/A   Clear
5:56 AM 50.9 °F - 46.9 °F 86% 29.95 in 10.0 mi SSE 21.9 mph - N/A   Clear
6:56 AM 52.9 °F - 46.9 °F 80% 29.94 in 10.0 mi South 26.5 mph - N/A   Partly Cloudy
7:56 AM 55.9 °F - 46.9 °F 72% 29.93 in 10.0 mi South 28.8 mph - N/A   Mostly Cloudy
8:56 AM 57.9 °F - 50.0 °F 75% 29.91 in 10.0 mi South 35.7 mph - N/A   Overcast
9:56 AM 63.0 °F - 52.0 °F 67% 29.89 in 10.0 mi South 34.5 mph - N/A   Clear
10:56 AM 63.9 °F - 52.0 °F 65% 29.85 in 10.0 mi South 36.8 mph - N/A   Clear
11:56 AM 65.8 °F - 52.9 °F 63% 29.81 in 10.0 mi South 41.4 mph - N/A   Partly Cloudy
12:56 PM 65.8 °F - 52.0 °F 61% 29.78 in 10.0 mi South 40.3 mph 48.3 mph N/A   Clear
1:56 PM 65.8 °F - 52.9 °F 63% 29.77 in 10.0 mi South 34.5 mph - N/A   Mostly Cloudy
2:56 PM 64.9 °F - 52.9 °F 65% 29.78 in 10.0 mi South 32.2 mph - N/A   Mostly Cloudy
3:56 PM 59.9 °F - 55.9 °F 87% 29.80 in 1.8 mi South 25.3 mph - 0.00 in Rain Light Rain
4:03 PM 60.8 °F - 55.4 °F 82% 29.81 in 3.0 mi South 26.5 mph - 0.00 in Rain Light Rain
4:12 PM 60.8 °F - 55.4 °F 82% 29.81 in 2.0 mi South 26.5 mph - 0.01 in Rain Light Rain
4:49 PM 53.6 °F - 53.6 °F 100% 29.87 in 2.0 mi WNW 21.9 mph - 0.03 in Rain Rain
4:56 PM 52.0 °F - 52.0 °F 100% 29.88 in 3.0 mi WNW 19.6 mph - 0.03 in Rain Rain
5:43 PM 51.8 °F - 51.8 °F 100% 29.90 in 1.8 mi West 8.1 mph - 0.05 in Rain Rain
5:56 PM 50.9 °F - 50.9 °F 100% 29.92 in 3.0 mi West 6.9 mph - 0.07 in Rain Light Rain
6:35 PM 51.8 °F - 51.8 °F 100% 29.91 in 4.0 mi West 10.4 mph - 0.05 in Rain Light Rain
6:48 PM 51.8 °F - 51.8 °F 100% 29.92 in 4.0 mi SW 8.1 mph - 0.06 in Rain Light Rain
6:56 PM 50.9 °F - 50.9 °F 100% 29.92 in 3.0 mi WSW 5.8 mph - 0.08 in Rain Light Rain
7:56 PM 50.0 °F - 50.0 °F 100% 29.93 in 2.5 mi SSW 9.2 mph - 0.08 in Rain Light Rain
8:03 PM 50.0 °F - 50.0 °F 100% 29.93 in 2.5 mi SW 10.4 mph - 0.01 in Rain Light Rain
8:23 PM 50.0 °F - 50.0 °F 100% 29.93 in 3.0 mi SW 9.2 mph - 0.02 in Rain Light Rain
8:35 PM 50.0 °F - 50.0 °F 100% 29.93 in 2.5 mi West 12.7 mph - 0.04 in Rain Light Rain
8:43 PM 50.0 °F - 50.0 °F 100% 29.93 in 3.0 mi West 12.7 mph - 0.06 in Rain Light Rain
8:56 PM 48.9 °F - 48.9 °F 100% 29.95 in 7.0 mi WSW 13.8 mph - 0.06 in Rain Light Rain
9:56 PM 41.9 °F 33.7 °F 41.9 °F 100% 29.99 in 4.0 mi WNW 17.3 mph - 0.08 in Rain Light Rain
10:56 PM 38.8 °F 30.0 °F 38.8 °F 100% 30.00 in 5.0 mi WNW 16.1 mph - 0.08 in Rain Light Rain
11:18 PM 37.4 °F 27.5 °F 37.4 °F 100% 30.00 in 10.0 mi WNW 18.4 mph - 0.01 in Rain Light Rain
11:56 PM 34.9 °F 24.2 °F 34.9 °F 100% 30.02 in 7.0 mi WNW 18.4 mph - 0.02 in Rain Light Rain